This is the latest recevied weather packets stored in our database for station/object K0NV. If no packets are shown the sender has not sent any weather packets the latest 10 day(s).
| Time | Temp. | Humidity | Pressure | Rain* | Wind** | Luminosity | Snow |
|---|---|---|---|---|---|---|---|
| 1777929086 | 25.56° C | 54% | 1006.7 hPa | 0 mm | - | 370 W/m² | - |
| 1777928785 | 26.11° C | 53% | 1006.5 hPa | 0 mm | - | 511 W/m² | - |
| 1777928480 | 25.56° C | 52% | 1007 hPa | 0 mm | - | 580 W/m² | - |
| 1777928178 | 25° C | 53% | 1007 hPa | 0 mm | - | 412 W/m² | - |
| 1777927876 | 25.56° C | 53% | 1007.2 hPa | 0 mm | - | 509 W/m² | - |
| 1777927574 | 25.56° C | 54% | 1007.2 hPa | 0 mm | - | 525 W/m² | - |
| 1777927273 | 25.56° C | 53% | 1007.1 hPa | 0 mm | - | 383 W/m² | - |
| 1777926971 | 25.56° C | 53% | 1007.5 hPa | 0 mm | - | 648 W/m² | - |
| 1777926668 | 25.56° C | 54% | 1007.3 hPa | 0 mm | - | 617 W/m² | - |
| 1777926363 | 25.56° C | 53% | 1007.5 hPa | 0 mm | - | 588 W/m² | - |
| 1777926060 | 25.56° C | 53% | 1007.6 hPa | 0 mm | - | 598 W/m² | - |
| 1777925757 | 25.56° C | 53% | 1007.6 hPa | 0 mm | - | 513 W/m² | - |
| 1777925455 | 25.56° C | 53% | 1007.7 hPa | 0 mm | - | 298 W/m² | - |
| 1777925151 | 25.56° C | 52% | 1007.9 hPa | 0 mm | - | 293 W/m² | - |
| 1777924848 | 25.56° C | 53% | 1007.6 hPa | 0 mm | - | 412 W/m² | - |
| 1777924544 | 25.56° C | 53% | 1007.7 hPa | 0 mm | - | 410 W/m² | - |
| 1777924241 | 25° C | 54% | 1007.8 hPa | 0 mm | - | 354 W/m² | - |
| 1777923937 | 25.56° C | 52% | 1007.7 hPa | 0 mm | - | 120 W/m² | - |
| 1777923633 | 25° C | 53% | 1008 hPa | 0 mm | - | 689 W/m² | - |
| 1777923330 | 25° C | 53% | 1007.9 hPa | 0 mm | - | 694 W/m² | - |
| 1777923029 | 25° C | 54% | 1008 hPa | 0 mm | - | 690 W/m² | - |
| 1777922726 | 25° C | 54% | 1007.9 hPa | 0 mm | - | 687 W/m² | - |
| 1777922424 | 25° C | 54% | 1007.8 hPa | 0 mm | - | 692 W/m² | - |
| 1777922122 | 25° C | 54% | 1007.9 hPa | 0 mm | - | 709 W/m² | - |
| 1777921818 | 25° C | 54% | 1008 hPa | 0 mm | - | 691 W/m² | - |
* Rain latest hour (hover to see other rain measurements)
** Current wind speed in m/s (hover to see current wind gust speed)